{"data":{"norad_id":59763,"intl_designator":"2024-091L","name":"STARLINK-11104 [DTC]","alt_names":[],"object_type":"PAYLOAD","status":"ACTIVE","operator":null,"country":"US","launch_date":"2024-05-14","launch_site_code":"AFWTR","launch_vehicle":null,"mission":null,"orbit_class":"UNKNOWN","rcs_meters":null,"size_class":null,"mass_kg":null,"dimensions":null,"purposes":["comms"],"wikipedia_slug":null,"has_3d_model":false,"image_url":null,"decayed_at":null,"tle_current":{"epoch":"2026-05-25T03:18:53.429760Z","epoch_age_seconds":56498,"freshness":"FRESH","line1":"1 59763U 24091L   26145.13811840 -.00001280  00000+0 -57111-5 0  9992","line2":"2 59763  53.1582 189.1609 0001066 116.1083 244.0045 15.69692908117523","mean_motion":15.69692908,"eccentricity":0.0001066,"inclination_deg":53.1582,"raan_deg":189.1609,"arg_perigee_deg":116.1083,"mean_anomaly_deg":244.0045,"bstar":-5.7111e-6,"rev_number":11752,"period_min":91.737689114921,"perigee_km":359.0574001354,"apogee_km":360.49392311485,"semimajor_km":6737.9126616251,"source":"CELESTRAK","updated_at":"2026-05-25T13:38:19.057701Z"}}}